Flag for Italy Weather past 2 weeks in Venice, Italy

Now
77 °F

Passing clouds.


Feels Like: 79 °F
Forecast: 67 / 76 °F
Wind: 14 mph from Northeast

Location: Venice / Tessera

Current Time: Jul 29, 2015 at 9:02:37 PM

Latest Report: Jul 29, 2015 at 8:20 PM


Visibility: N/A

Pressure: 29.71 "Hg

Humidity: 61%

Dew point: 63 °F

Location of VeniceLocation

Historic Weather in Venice — Graph

°F

Venice temperature yesterday

Maximum temperature yesterday: 84 °F (at 3:20 PM)
Minimum temperature yesterday: 70 °F (at 4:20 AM)
Average temperature yesterday: 78 °F

Past Weeks' High & Low Weather Summary

 TemperatureHumidityPressure
High95 °F (Jul 21, 4:20 PM)94% (Jul 16, 11:50 PM)30.04 "Hg (Jul 16, 11:50 PM)
Low66 °F (Jul 27, 7:50 AM)39% (Jul 23, 2:50 PM)29.65 "Hg (Jul 27, 3:20 PM)
Average82 °F66%29.85 "Hg
* Reported Jul 14 7:20 PM — Jul 29 7:50 PM, Venice, Weather by CustomWeather, © 2015

Note: Actual official high and low records may vary slightly from our data, if they occured in-between our weather recording intervals... More about our weather records

Advertising

Venice weather history for previous 24 hours

 ConditionsComfort  
Time TempWeatherWind HumidityBarometerVisibility
7:50 PM
Wed, Jul 29
81 °FScattered clouds.14 mph54%29.71 "HgN/A
7:20 PM82 °FPassing clouds.7 mph55%29.68 "HgN/A
6:50 PM82 °FSunny.8 mph58%29.68 "Hg10 mi
6:20 PM84 °FPassing clouds.10 mph51%29.68 "HgN/A
5:50 PM84 °FPassing clouds.10 mph51%29.68 "HgN/A
5:20 PM82 °FPassing clouds.12 mph58%29.68 "HgN/A
4:50 PM84 °FPassing clouds.13 mph55%29.68 "HgN/A
4:20 PM84 °FPassing clouds.9 mph48%29.68 "HgN/A
3:50 PM84 °FPassing clouds.9 mph51%29.71 "HgN/A
3:20 PM82 °FPassing clouds.9 mph55%29.71 "HgN/A
2:50 PM84 °FPassing clouds.9 mph51%29.71 "HgN/A
2:20 PM84 °FPassing clouds.7 mph51%29.71 "HgN/A
1:50 PM82 °FPassing clouds.8 mph58%29.71 "HgN/A
1:20 PM82 °FScattered showers. Scattered clouds.7 mph66%29.71 "HgN/A
12:50 PM82 °FPassing clouds.12 mph66%29.71 "HgN/A
12:20 PM82 °FScattered clouds.9 mph70%29.71 "HgN/A
11:50 AM82 °FScattered clouds.9 mph70%29.71 "HgN/A
11:20 AM81 °FScattered clouds.7 mph70%29.71 "HgN/A
10:50 AM81 °FPassing clouds.8 mph70%29.71 "HgN/A
10:20 AM79 °FPassing clouds.8 mph74%29.71 "HgN/A
9:50 AM79 °FScattered clouds.8 mph74%29.71 "HgN/A
9:20 AM77 °FPassing clouds.9 mph74%29.71 "HgN/A
8:50 AM75 °FSunny.8 mph74%29.71 "Hg10 mi
8:20 AM73 °FSunny.9 mph78%29.71 "Hg10 mi
7:50 AM73 °FSunny.9 mph78%29.71 "Hg10 mi
7:20 AM72 °FSunny.9 mph83%29.71 "Hg10 mi
6:50 AM72 °FSunny.9 mph78%29.71 "Hg10 mi
6:20 AM70 °FPassing clouds.9 mph83%29.71 "HgN/A
5:50 AM70 °FClear.9 mph88%29.68 "Hg10 mi
4:50 AM72 °FClear.9 mph83%29.68 "Hg10 mi
3:50 AM72 °FClear.9 mph94%29.68 "Hg10 mi
3:20 AM73 °FClear.7 mph89%29.71 "Hg10 mi
2:50 AM73 °FClear.8 mph89%29.71 "Hg10 mi
2:20 AM73 °FPassing clouds.9 mph89%29.71 "HgN/A
1:50 AM75 °FClear.3 mph89%29.71 "Hg10 mi
1:20 AM77 °FClear.5 mph83%29.71 "Hg10 mi
12:50 AM77 °FClear.7 mph83%29.71 "Hg10 mi
12:20 AM77 °FClear.6 mph83%29.74 "Hg10 mi
11:50 PM
Tue, Jul 28
77 °FPassing clouds.6 mph89%29.74 "HgN/A
11:20 PM79 °FPassing clouds.2 mph79%29.74 "HgN/A
10:50 PM79 °FClear.3 mph84%29.71 "Hg10 mi
10:20 PM79 °FClear.5 mph84%29.71 "Hg10 mi
9:50 PM79 °FClear.8 mph84%29.71 "Hg10 mi
9:20 PM81 °FPassing clouds.7 mph74%29.71 "HgN/A
Weather by CustomWeather, © 2015

See weather overviewHow to use our weather pages